{"data":{"norad_id":69887,"epoch":"2026-09-19T12:36:47.767104Z","epoch_age_seconds":105816,"freshness":"FRESH","line1":"1 69887U 26156U   26262.52555286  .00000538  00000+0  58818-4 0  9993","line2":"2 69887  97.7467 161.7532 0005702 271.6206  88.4359 14.91861506 11069","mean_motion":14.91861506,"eccentricity":0.0005702,"inclination_deg":97.7467,"raan_deg":161.7532,"arg_perigee_deg":271.6206,"mean_anomaly_deg":88.4359,"bstar":5.8818e-5,"rev_number":1106,"period_min":96.523705063009,"perigee_km":588.15696933381,"apogee_km":596.10586343585,"semimajor_km":6970.2684163848,"source":"CELESTRAK","updated_at":"2026-09-20T09:00:25.167619Z"}}